Weather History for Morelia, Mexico

Change the Weather History Date:

Wednesday, August 14, 2013

  Actual Average Record
Temperature  
Mean Temperature 66 °F -  
Max Temperature 80 °F 76 °F 80 °F (2002)
Min Temperature 51 °F 56 °F 50 °F (2003)
Growing Degree Days 16 (Base 50)    
Moisture  
Dew Point 53 °F    
Average Humidity 67    
Maximum Humidity 100    
Minimum Humidity 28    
Precipitation  
Precipitation 0.00 in 0.19 in - ()
Sea Level Pressure  
Sea Level Pressure 30.00 in    
Wind  
Wind Speed 2 mph ()    
Max Wind Speed 16 mph    
Max Gust Speed -    
Visibility 7.0 miles    
Events      
Averages and records for this station are not official NWS values.
T = Trace of Precipitation, MM = Missing Value Source: Averaged Metar Reports

Daily Weather History Graph

Daily Weather History Graph

Search for Another Location

Airport:

Trip Planner

Search our weather history database for the weather conditions in past years. The results will help you decide how hot, cold, wet, or windy it might be!

Date:

Astronomy

Aug. 14, 2013 Rise Set
Actual Time 7:24 AM CDT 8:13 PM CDT
Civil Twilight 7:01 AM CDT 8:35 PM CDT
Nautical Twilight 6:34 AM CDT 9:02 PM CDT
Astronomical Twilight 6:06 AM CDT 9:30 PM CDT
Moon 2:17 PM CDT (8/14) 12:54 AM CDT (8/14)
Length of Visible Light 13h 34m
Length of Day
12h 48m
First Quarter, 53% of the Moon is Illuminated
Aug 14
First Quarter
Aug 20
Full
Aug 28
Last Quarter
Sep 5
New
Sep 12
First Quarter

Hourly Weather History & Observations

Time (CDT) Temp. Dew Point Humidity Pressure Visibility Wind Dir Wind Speed Gust Speed Precip Events Conditions
12:45 AM 63 °F 58 °F 77% 29.79 in 5 mi NW 2.2 mph - -   Partly Cloudy
12:47 AM 60.8 °F 55.4 °F 82% 29.86 in 7.0 mi Calm Calm - N/A   Clear
1:42 AM 60.8 °F 53.6 °F 77% 30.22 in 7.0 mi Calm Calm - N/A   Clear
2:43 AM 59.0 °F 53.6 °F 82% 30.22 in 7.0 mi NNE 4.6 mph - N/A   Clear
3:45 AM 53.6 °F 53.6 °F 100% 29.84 in 7.0 mi Calm Calm - N/A   Clear
3:55 AM 60 °F 55 °F 80% 29.81 in 5 mi Calm Calm - -  
4:51 AM 51.8 °F 51.8 °F 100% 30.20 in 7.0 mi Calm Calm - N/A   Clear
5:42 AM 53.6 °F 51.8 °F 94% 30.21 in 7.0 mi Calm Calm - N/A   Clear
6:45 AM 51.8 °F 50.0 °F 94% 29.80 in 8.0 mi Calm Calm - N/A   Clear
6:55 AM 56 °F 53 °F 85% 29.89 in 5 mi Calm Calm - -  
7:43 AM 51.8 °F 50.0 °F 94% 30.22 in 8.0 mi Calm Calm - N/A   Clear
8:40 AM 55.4 °F 53.6 °F 94% 30.24 in 8.0 mi Calm Calm - N/A   Clear
9:43 AM 62.6 °F 51.8 °F 68% 29.83 in 8.0 mi ESE 4.6 mph - N/A   Clear
9:50 AM 62 °F 51 °F 59% 29.95 in 6 mi Calm Calm - -  
10:44 AM 68.0 °F 50.0 °F 52% 30.25 in 8.0 mi Variable 3.5 mph - N/A   Clear
11:46 AM 71.6 °F 51.8 °F 50% 30.24 in 8.0 mi North 9.2 mph - N/A   Clear
12:46 PM 73.4 °F 50.0 °F 44% 29.85 in 8.0 mi ENE 5.8 mph - N/A   Clear
12:50 PM 72 °F 53 °F 41% 29.92 in 7 mi South 2.2 mph - -  
1:41 PM 75.2 °F 50.0 °F 41% 30.20 in 8.0 mi NNE 13.8 mph - N/A   Scattered Clouds
2:53 PM 78.8 °F 50.0 °F 36% 30.16 in 8.0 mi NNE 16.1 mph - N/A   Mostly Cloudy
3:50 PM 78 °F 51 °F 28% 29.78 in 7 mi WNW 2.2 mph - -   Partly Cloudy
3:50 PM 78.8 °F 51.8 °F 39% 29.74 in 8.0 mi Calm Calm - N/A   Mostly Cloudy
5:46 PM 77.0 °F 53.6 °F 44% 30.11 in 8.0 mi NNW 4.6 mph - N/A   Scattered Clouds
6:46 PM 77.0 °F 55.4 °F 47% 29.82 in 8.0 mi NNE 6.9 mph - N/A   Scattered Clouds
6:50 PM 77 °F 53 °F 33% 29.69 in 7 mi NNW 2.2 mph - -   Partly Cloudy
7:43 PM 71.6 °F 55.4 °F 57% 30.11 in 8.0 mi NNE 4.6 mph - N/A   Scattered Clouds
8:43 PM 68.0 °F 57.2 °F 68% 30.15 in 8.0 mi South 3.5 mph - N/A   Mostly Cloudy
9:43 PM 66.2 °F 59.0 °F 78% 29.75 in 6.0 mi West 2.3 mph - N/A   Mostly Cloudy
9:45 PM 65 °F 58 °F 70% 29.72 in 5 mi SSW 2.2 mph - -   Partly Cloudy
10:40 PM 64.4 °F 59.0 °F 83% 30.20 in 5.0 mi West 5.8 mph - N/A   Mostly Cloudy
11:45 PM 62.6 °F 55.4 °F 77% 30.23 in 5.0 mi East 3.5 mph - N/A   Scattered Clouds